COSMOS 1357

Satellite information

Favourite Embed

Satellite Type and Status

PAYLOADIN ORBIT

Key statistics

Satellite COSMOS 1357 at a glance.

Uptime

15885

Days in orbit

Revolutions

≈ 12.6

Per day

Orbit

LEO

Low Earth Orbit

Inclination

74.0

Latest

Satellite identification and parameters

Extended collection of information and parameters for COSMOS 1357.

Object identification

Identified? True

Debris? False

Object name: COSMOS 1357

International designator: 1982-040A

Object number (NORAD): 13160

Object ID (CCSDS): 13160

Country: COMMONWEALTH OF INDEPENDENT STATES (CIS)

Current information (Y/N): Y

RCS size: MEDIUM

Orbital parameters

Period: 114.644 minutes

Inclination: 74.0152 deg

SMA: 7817.38 km

Apoapsis: 1477.561 km

Periapsis: 1400.928 km

RAAN: 17.3985 deg

Eccentricy: 0.0049014

Argument of periapsis: 116.1981 deg

Mean anomaly: 41.0265 deg

Mean motion: 12.56061663 rev/day

Mean motion (dot): -0.00000008 rev/day2

B* drag term: 0.000050583 1/REarth

Two-line elements (TLE)

Creation date: Oct. 31, 2025, 6:16 p.m.

Reference frame: TEME

Reference center: EARTH

Epoch: Oct. 31, 2025, 3:48 p.m. UTC

TLE line 0: 0 COSMOS 1357

TLE line 1: 1 13160U 82040A 25304.65873970 -.00000008 00000-0 50583-4 0 9998

TLE line 2: 2 13160 74.0152 17.3985 0049014 116.1981 41.0265 12.56061663994028

Live tracking on map

Real-time ground track for satellite COSMOS 1357.

In-orbit conjunctions

A list of the most updated potential collisions computed for object COSMOS 1357.

Target Orbit TCA Probability of collision Miss distance Type
THORAD DELTA 1 DEB SSO 2025-04-21 06:38:46 0.0001666312 279.0 (m) DEBRIS
SL-8 DEB LEO 2024-09-21 13:11:22 0.0004471722 518.0 (m) DEBRIS

Associated space launch

Military communications satellites

COSMOS 1357 was lifted into orbit during the mission ‘Kosmos-3M | Strela-1M 233-240’, on board a Kosmos-3M space rocket.

The launch took place on May 6, 1982, 6:07 p.m. from 132/2.

For more information about the launch, click the button.

Launch to space Kosmos-3M | Strela-1M 233-240
Kosmos-3M | Strela-1M 233-240

Agency: N/A

Status: Launch Successful

Launch date: May 6, 1982, 6:07 p.m. UTC

Rocket: Kosmos-3M

Launch pad: 132/2

Location: Plesetsk Cosmodrome, Russian Federation

...

Latest news about this satellite

There are no fresh news available about this satellite. Check back as we update our databases every day.


Newsletter sign-up

Weekly statistics, charts and insights to help you stay on top of the space industry.